Wind_Speed
48 48 49 52 53 50 47 46 46 45 44 43 41 40 40 40 40 41 38 37 37 35 35 35 32 34 37 35 35 37 38 39 40 39 38 36 36 36 36 36 38 39 39 40 40 40 40 40 40 40 38 38 38 38 38 37 37 37 37 36 37 38 38 38 39 40 41 41 42 42 43 44 45 45 46 47 48 48 49 51 52 52 53 55 57 58
51 49 52 55 53 50 49 49 49 48 46 45 44 42 41 42 42 42 40 38 37 35 36 37 33 34 38 37 35 36 38 41 42 41 40 38 36 37 38 38 38 39 41 42 42 42 41 41 42 41 40 39 39 39 39 39 39 39 39 38 38 39 40 40 40 41 43 43 44 45 46 46 47 48 48 49 50 51 52 53 54 55 57 58 60 61
52 52 55 56 53 52 52 51 50 49 48 48 46 44 43 44 44 43 42 40 37 35 36 37 34 34 37 38 38 38 38 42 44 42 42 40 38 39 39 38 38 40 42 43 43 43 42 43 43 43 42 41 40 41 41 41 41 40 40 40 40 40 41 42 42 43 44 46 47 48 48 49 49 50 50 51 52 53 54 55 57 58 60 61 63 64
55 56 58 58 55 54 54 53 52 51 51 50 49 47 46 46 45 43 43 41 37 35 35 37 35 34 38 38 40 42 40 42 44 43 43 42 41 41 39 39 39 41 42 43 44 44 44 44 45 45 43 42 42 41 41 41 42 42 41 41 41 42 43 44 45 46 47 48 49 50 50 51 51 52 53 53 54 55 56 58 59 60 62 63 65 66
58 59 60 59 57 56 56 55 54 54 53 53 52 50 48 48 46 43 43 41 38 36 36 37 35 35 39 39 42 45 42 43 44 43 44 44 43 42 41 41 41 41 42 43 45 45 44 45 46 46 45 44 43 42 42 42 43 43 43 43 43 43 44 45 46 48 49 50 51 52 52 53 54 54 55 56 56 57 59 60 61 62 63 64 66 68
58 59 60 59 58 58 58 56 56 56 56 55 54 53 51 49 47 45 43 41 38 37 37 37 34 34 40 42 45 48 44 42 43 43 46 46 45 43 42 43 42 42 43 44 45 45 45 45 47 48 47 46 45 44 44 44 45 45 44 45 45 45 46 47 48 49 50 51 52 53 54 55 55 56 57 57 59 60 61 61 62 63 64 66 67 68
56 59 60 59 59 58 57 57 59 59 58 56 54 55 54 50 48 46 44 42 38 37 38 38 35 33 38 43 47 49 45 43 44 45 47 47 46 45 44 44 44 44 44 45 45 45 45 45 47 48 49 48 47 47 47 47 47 47 47 47 47 48 48 49 50 51 51 52 53 54 55 56 57 58 59 60 60 61 62 62 63 65 66 68 69 69
56 60 61 59 58 58 58 59 62 62 59 57 55 56 55 51 49 47 46 43 39 37 37 38 39 35 34 41 49 49 46 46 47 47 47 48 47 47 46 46 46 46 46 45 45 46 45 45 46 48 49 49 49 49 49 49 49 49 49 49 50 50 51 51 52 53 53 54 55 56 57 57 58 59 60 61 62 62 63 64 66 67 68 69 70 70
57 60 60 59 59 59 59 62 64 64 61 58 57 57 55 53 50 48 46 44 40 37 34 38 45 38 31 38 46 48 47 49 50 49 48 49 49 48 48 48 48 48 47 47 46 46 46 46 47 48 49 50 50 51 51 51 52 52 52 52 52 53 53 54 55 56 56 56 57 58 59 59 60 61 62 62 63 64 65 66 68 69 70 70 70 70
58 58 59 61 61 60 62 64 65 65 63 61 59 58 57 54 51 48 45 43 41 36 33 42 50 40 29 35 43 46 51 53 53 52 50 50 50 49 49 49 49 49 48 48 48 48 48 48 48 49 49 50 51 51 52 53 53 54 54 54 55 55 56 57 58 58 59 59 60 60 61 62 62 63 63 64 65 66 67 68 69 70 70 70 71 71
59 59 61 61 62 62 64 65 65 67 66 64 62 60 58 55 52 48 45 44 41 35 38 48 50 36 24 31 41 46 52 55 56 56 53 52 51 51 51 50 50 49 49 49 49 49 49 49 50 51 51 51 51 52 53 54 54 55 55 56 57 58 58 59 60 60 61 62 62 63 63 64 64 65 65 66 67 67 68 69 69 70 71 71 71 72
60 61 62 62 62 63 64 65 67 69 68 67 64 61 59 55 52 49 46 46 42 38 44 50 45 32 22 29 40 46 51 54 55 56 56 55 54 53 52 51 51 51 51 51 51 51 51 50 51 51 52 52 53 54 55 55 55 56 56 58 58 59 60 61 61 62 62 63 64 64 65 65 66 66 67 67 68 68 69 69 70 70 71 72 72 73
62 63 63 63 62 63 65 68 69 70 69 69 65 62 60 56 52 49 47 47 44 42 45 47 42 33 28 35 43 46 51 53 53 56 57 57 57 57 55 54 53 52 52 53 53 53 52 52 52 52 52 53 53 55 55 55 56 56 57 58 59 59 60 61 62 62 63 64 64 65 65 66 67 67 67 67 68 68 69 69 70 71 71 72 73 73
65 65 64 64 64 65 68 70 70 70 70 69 66 64 61 57 53 49 49 50 46 44 45 45 41 34 33 40 45 45 48 51 53 56 58 58 59 59 58 56 55 53 53 54 54 55 55 54 54 53 54 54 54 55 55 55 56 56 57 58 59 59 60 61 62 63 64 64 65 65 66 66 67 67 67 67 68 69 69 70 71 71 72 72 73 73
66 65 65 66 67 69 71 71 71 71 71 68 66 65 61 58 57 52 50 49 47 46 46 44 40 35 36 41 43 44 47 50 52 54 57 58 60 60 60 58 57 56 55 55 55 56 56 56 55 55 55 55 56 56 56 56 57 57 58 59 59 60 61 61 62 63 64 64 65 65 66 66 66 67 67 68 69 69 70 70 71 72 72 73 73 74
69 67 67 70 71 72 73 73 72 72 70 67 65 63 60 60 60 55 51 50 49 48 46 43 40 38 40 41 42 45 48 52 52 51 53 56 58 59 59 59 58 57 56 56 56 56 56 56 56 56 56 56 57 57 57 58 58 59 60 60 61 61 62 63 63 64 64 65 65 66 66 67 67 68 68 69 69 70 70 71 71 72 73 74 75 76
71 72 72 73 73 74 74 72 71 70 68 65 62 61 61 62 62 58 55 54 53 50 44 43 42 41 43 42 42 47 51 52 52 51 52 54 56 57 58 58 58 57 56 56 57 57 56 57 57 57 57 57 58 58 58 59 59 60 61 62 62 63 64 64 65 65 66 66 67 67 67 67 68 69 69 70 70 70 71 71 73 74 75 77 78 80
74 75 75 74 74 74 73 71 69 67 66 63 62 63 64 63 61 61 60 57 56 51 44 43 44 44 45 43 43 49 51 51 51 52 54 56 56 57 57 57 56 56 56 56 57 57 57 57 58 58 58 58 59 59 59 60 60 61 62 63 64 64 65 66 66 67 67 67 68 68 68 68 69 70 70 70 71 71 72 73 75 76 78 80 81 83
77 77 74 73 72 72 72 70 67 65 65 65 65 66 66 64 62 63 62 58 57 53 45 44 44 44 45 43 45 48 48 50 52 54 57 58 58 58 57 57 55 55 55 55 56 56 56 57 57 57 58 58 59 59 60 61 61 62 63 63 64 65 65 66 66 67 68 68 68 68 68 69 69 70 70 71 72 73 74 76 77 79 80 82 83 85
79 78 75 72 72 73 72 69 66 66 68 69 69 68 67 65 64 64 62 59 57 55 50 46 43 42 42 42 45 46 46 51 55 57 58 59 59 59 58 58 57 56 56 55 55 55 55 56 56 56 57 57 58 59 60 61 61 62 63 63 63 64 64 65 66 66 67 67 68 68 68 69 70 71 72 73 74 75 77 78 80 81 82 84 86 88
80 79 76 73 74 74 72 69 68 69 70 70 68 66 66 66 65 65 63 60 59 57 55 51 43 38 39 43 44 44 46 54 58 58 60 61 61 61 60 59 59 59 58 57 56 56 56 56 56 57 57 58 58 59 60 60 61 61 62 62 62 63 63 64 64 65 65 66 67 68 69 70 72 73 74 75 76 78 79 80 82 83 85 87 89 90
80 80 79 77 76 74 72 71 71 70 68 67 67 65 65 66 66 66 64 62 63 61 60 56 45 36 40 45 44 42 48 56 59 59 61 62 63 63 62 62 62 62 62 61 60 60 59 59 59 59 59 59 59 59 59 59 60 60 60 60 61 61 62 63 64 65 66 68 69 70 71 72 74 75 76 77 79 80 81 83 84 86 88 89 91 92
82 83 82 80 77 74 74 73 71 69 68 68 67 65 65 66 67 68 67 65 67 64 61 60 51 38 40 46 44 45 53 58 59 60 61 62 62 64 64 64 64 64 64 64 63 63 62 62 61 61 61 60 60 60 59 59 59 60 60 61 62 63 64 65 66 67 68 69 70 71 73 74 76 77 79 80 81 82 84 85 87 89 90 91 92 93
82 84 84 83 80 78 77 75 72 70 70 69 67 67 68 69 70 72 72 70 70 64 61 64 57 43 42 47 47 50 56 60 61 62 63 63 64 65 65 65 65 65 65 64 64 64 63 62 62 62 62 62 62 61 61 62 62 62 63 64 64 65 66 67 68 69 70 71 72 73 75 76 78 79 81 82 83 84 86 88 89 91 92 92 93 93
83 85 86 85 83 80 79 76 73 71 71 72 73 73 74 75 76 77 75 75 72 65 64 68 61 49 50 54 53 53 57 61 64 65 65 66 66 66 65 65 65 66 65 65 64 65 64 64 64 64 64 64 64 64 64 64 65 65 66 66 67 68 68 69 70 71 72 72 74 75 76 78 79 81 82 84 85 87 88 89 90 91 92 92 93 92
86 87 88 87 84 80 77 74 72 73 77 79 78 78 78 78 80 79 79 79 74 67 69 71 63 56 58 59 58 57 59 62 65 66 67 69 69 66 65 65 66 67 67 66 66 66 67 67 67 66 66 65 65 65 65 66 67 67 68 68 69 70 70 71 72 72 73 74 75 77 78 79 81 82 84 86 87 88 89 90 90 91 91 92 92 91
90 90 90 89 85 81 77 76 78 81 83 83 80 80 81 80 80 81 81 78 74 73 75 71 66 65 64 62 62 61 62 64 65 67 69 69 68 67 65 65 66 67 68 68 68 68 68 69 69 68 68 67 67 67 67 68 69 70 70 70 71 71 72 73 74 74 75 76 77 78 80 81 83 84 86 87 88 89 89 89 89 90 90 91 92 92
93 93 92 90 87 83 80 82 85 87 86 85 84 83 83 82 83 83 81 76 77 81 78 69 72 74 67 64 66 65 66 68 69 70 70 68 67 67 67 66 67 67 69 70 70 70 70 71 71 70 70 70 70 70 70 71 72 72 73 73 73 74 75 76 76 77 77 78 79 80 82 83 84 85 86 87 88 89 89 89 90 90 91 92 93 94
96 96 94 92 90 87 84 86 90 90 89 88 87 86 85 85 85 84 81 78 81 85 78 71 76 77 68 67 69 69 72 75 74 75 73 71 71 70 69 69 69 69 70 71 72 73 72 73 73 73 73 72 72 72 73 74 75 75 75 76 76 77 78 79 78 79 79 80 81 82 83 84 85 85 87 88 89 90 90 91 92 93 93 94 95 96
100 99 97 95 93 89 87 89 92 93 93 92 91 90 88 87 86 84 83 83 85 85 78 74 79 77 71 70 72 74 79 80 79 79 78 78 77 74 72 71 71 71 72 71 72 72 73 74 74 74 74 74 74 75 76 77 77 77 77 78 78 79 80 80 80 80 81 82 83 84 84 85 86 87 89 89 91 92 93 94 94 94 94 95 96 97
103 102 100 99 98 94 90 91 94 96 96 96 95 93 89 86 85 86 86 87 88 86 82 81 82 77 71 73 77 80 83 83 82 82 82 81 80 78 76 75 73 74 74 73 74 73 73 74 75 75 75 75 76 77 78 78 78 78 79 79 80 81 81 82 82 83 83 84 85 86 86 88 89 90 91 92 93 94 95 95 95 95 96 97 98 99
105 104 104 103 103 98 93 95 98 99 100 102 99 92 87 85 87 89 89 89 90 89 87 86 84 76 74 79 82 83 83 82 82 82 82 80 79 77 76 75 74 75 75 75 75 74 75 76 76 76 76 77 78 79 80 80 79 79 80 81 82 82 83 84 85 85 86 87 87 88 89 91 92 93 93 94 95 95 95 95 95 96 97 99 100 100
106 107 107 107 106 101 98 100 102 102 105 105 97 88 86 89 92 92 91 90 90 91 90 89 84 79 80 84 83 82 83 83 83 82 82 81 79 78 75 74 74 74 74 74 75 75 76 76 77 77 78 79 80 81 82 81 81 81 82 83 84 86 86 87 87 88 88 89 90 90 91 93 94 94 95 95 95 96 95 96 96 98 99 100 101 102
108 108 109 109 108 105 102 103 105 107 107 101 91 88 90 93 94 93 91 90 92 93 92 90 86 83 84 86 85 85 86 86 85 83 82 81 81 80 79 77 76 75 75 75 75 76 77 78 79 79 80 81 82 83 84 84 84 85 85 86 88 88 89 89 89 89 90 90 91 92 93 95 95 95 95 95 96 96 96 97 98 99 100 101 102 104
108 109 110 110 111 109 107 107 108 108 103 95 92 93 94 94 94 95 94 93 93 94 94 92 89 86 86 88 88 88 88 88 87 83 80 80 82 83 83 82 81 80 80 79 79 79 80 81 81 81 82 83 84 85 86 86 86 87 87 87 88 89 89 90 90 90 91 91 92 93 94 95 94 94 94 95 95 96 97 98 99 101 102 103 105 107
109 109 109 111 113 113 112 112 111 107 102 97 95 94 93 94 96 99 99 97 96 95 95 93 91 88 88 88 89 90 90 90 87 82 79 80 83 85 86 86 86 86 85 84 83 83 84 84 84 84 84 84 84 85 86 87 87 86 86 87 87 88 88 89 90 90 91 91 92 92 93 93 92 93 94 95 96 97 99 100 102 103 104 106 108 110
109 109 109 110 111 112 113 113 112 110 106 99 95 94 95 97 100 103 104 101 97 95 96 95 92 90 89 90 92 93 94 92 87 82 81 85 88 89 90 89 89 89 88 87 86 86 86 86 85 84 83 82 82 83 84 84 84 84 85 86 86 87 88 88 89 90 90 91 91 91 91 92 93 94 96 97 99 100 102 103 105 106 108 110 112 113
110 110 110 110 110 109 111 112 112 111 104 96 94 96 100 101 103 106 108 102 96 94 95 96 94 92 91 92 93 94 94 93 88 84 86 91 92 91 91 90 90 90 89 89 89 88 87 85 84 83 82 81 81 81 82 82 82 82 83 84 85 86 87 87 88 89 90 90 91 92 93 95 96 98 99 101 102 104 105 107 108 110 112 114 116 117
111 112 112 113 112 110 109 108 108 105 98 91 91 95 98 100 102 106 106 99 92 92 95 97 96 93 91 91 91 92 93 92 88 87 89 92 92 92 92 92 91 91 91 90 89 87 86 85 84 84 83 82 81 82 82 83 83 83 84 85 86 87 88 89 91 92 92 93 95 96 98 99 100 102 103 105 106 107 109 111 113 115 116 118 120 122
111 112 113 114 113 111 109 107 105 102 96 92 92 93 95 97 100 102 101 93 90 92 96 96 95 93 91 90 90 90 90 89 87 86 87 89 90 91 92 91 91 90 88 87 86 85 85 85 85 85 84 84 84 84 85 85 86 87 87 88 89 90 92 93 94 95 97 98 100 101 102 104 105 106 108 109 111 112 114 115 117 119 121 123 124 126
112 111 111 112 112 112 111 109 108 105 100 97 96 96 97 98 100 100 97 94 93 94 94 94 94 93 93 92 91 90 89 88 86 84 84 85 86 87 88 88 88 87 86 85 85 85 85 85 85 86 86 87 87 88 88 89 90 91 92 93 94 95 96 97 98 100 101 103 104 106 107 108 109 111 112 114 115 117 118 120 122 123 125 127 128 129
113 112 112 112 112 112 113 113 112 109 103 100 101 101 101 101 101 99 97 96 96 95 94 95 95 95 94 93 92 91 91 90 89 87 87 87 87 88 88 89 88 88 87 86 86 87 87 87 88 88 89 89 90 91 92 93 94 95 96 97 98 99 100 101 103 104 106 107 109 110 111 113 114 116 117 119 120 121 123 124 126 127 129 130 132 133
117 116 116 115 114 114 115 116 116 112 107 105 106 106 105 103 102 100 99 98 97 97 97 97 96 96 96 95 94 94 94 93 93 92 92 92 91 91 92 92 92 91 90 90 90 91 91 91 92 92 93 94 94 95 96 97 98 99 100 101 103 104 105 106 107 108 110 111 112 114 115 116 118 119 121 122 124 125 127 128 130 131 133 134 135 136
120 120 119 117 116 116 117 117 117 114 112 111 111 109 107 106 104 103 102 101 100 100 100 99 99 98 98 97 97 97 97 97 97 97 96 96 96 96 96 96 96 96 95 95 95 96 96 96 97 97 98 99 99 100 101 102 103 104 105 106 107 108 109 110 111 112 113 115 116 117 118 120 121 123 124 126 127 129 130 132 133 134 136 137 138 139
122 121 120 119 118 118 118 118 117 117 115 114 112 111 111 110 108 107 106 105 104 103 103 102 102 101 101 101 101 100 100 101 100 100 100 100 100 100 100 100 100 100 100 100 100 100 101 101 102 102 103 103 104 104 105 106 107 108 109 110 111 112 113 114 115 116 117 118 120 121 122 123 125 126 127 129 130 132 133 135 136 137 138 139 140 141
124 122 122 121 120 120 120 119 119 118 117 116 115 114 113 112 111 111 110 109 108 107 107 106 105 104 104 104 103 104 104 104 104 104 104 104 104 104 104 104 104 104 104 104 104 104 105 105 106 107 107 107 108 109 109 110 111 112 113 114 115 116 117 118 119 120 121 123 124 125 126 127 128 130 131 132 134 135 136 138 139 140 141 142 142 143
125 124 123 123 122 122 121 120 119 119 119 118 117 116 115 114 113 113 113 112 111 110 109 109 108 108 107 107 107 107 107 107 107 107 107 107 107 107 107 107 107 107 107 107 107 108 109 109 110 111 111 112 112 113 114 114 115 116 117 118 119 120 121 122 123 124 125 127 127 129 130 131 132 133 134 136 137 138 139 140 141 142 143 143 144 145
126 126 125 124 124 123 121 120 120 119 119 119 118 117 116 115 115 115 115 114 114 113 112 112 111 111 110 110 110 110 110 110 111 111 111 111 111 111 111 111 110 111 111 111 112 112 113 113 114 115 115 116 116 117 118 118 119 120 121 122 123 124 125 126 127 128 129 130 131 132 133 134 135 137 138 139 140 141 142 142 143 144 144 145 145 146
129 128 127 126 125 123 122 121 121 121 121 121 120 119 119 118 117 117 117 116 116 116 115 114 114 113 113 113 113 113 113 114 114 114 115 115 115 115 115 114 114 115 115 116 116 117 117 118 118 119 120 120 121 122 122 123 124 124 125 126 127 128 128 129 130 131 132 133 135 136 137 138 139 140 141 142 142 143 143 144 144 144 144 145 145 145
131 129 129 128 127 125 124 123 124 124 124 123 122 121 121 120 119 119 118 118 118 118 117 117 116 115 115 115 115 116 116 116 117 117 117 117 117 117 118 118 118 119 119 120 120 121 121 122 122 123 124 124 125 125 126 127 127 128 129 130 130 131 132 133 134 135 136 137 138 139 139 140 141 142 142 143 143 143 144 144 144 144 144 144 144 144
132 131 131 130 128 127 126 125 125 124 123 123 123 122 122 121 121 120 120 120 119 119 119 119 118 118 118 117 118 118 118 119 119 119 119 119 120 120 120 120 121 121 122 123 123 124 124 125 125 126 127 128 128 129 130 131 131 132 133 133 134 135 135 136 137 138 139 140 140 141 141 141 142 142 142 142 143 143 143 143 143 143 143 143 143 142
Wind_Direction
260 260 260 259 259 260 261 262 262 262 262 262 262 261 261 261 261 261 261 261 263 265 266 267 266 267 268 266 266 268 269 268 268 268 267 265 264 263 261 258 258 258 257 257 258 259 262 264 266 268 269 268 267 266 265 265 265 265 263 262 262 263 264 265 267 268 269 270 270 270 271 273 275 276 279 281 283 285 287 288 290 292 294 295 295 296
259 259 259 259 260 262 262 262 262 262 262 262 262 261 261 261 261 262 262 260 262 264 265 266 266 266 269 270 267 266 267 268 269 269 268 267 265 263 261 260 259 258 256 256 257 259 261 262 264 266 268 268 268 268 266 265 265 265 266 266 265 266 267 267 268 270 271 272 272 273 274 275 276 278 280 282 284 286 287 289 291 293 293 294 294 295
259 259 260 261 262 262 262 262 263 263 262 261 261 260 260 260 260 262 263 263 263 263 265 266 266 265 267 269 269 266 265 266 268 269 269 269 267 263 262 262 260 259 258 258 258 259 260 261 263 265 267 268 269 268 268 267 266 266 267 268 268 268 268 269 269 270 271 272 273 274 276 277 279 280 281 283 284 286 287 289 291 292 292 293 294 294
259 260 262 263 263 263 263 263 263 263 262 262 261 260 259 259 260 261 263 265 264 263 264 266 267 266 265 266 267 266 264 264 266 268 270 270 268 266 265 264 261 260 260 260 259 259 260 261 263 265 267 268 268 269 269 269 269 268 268 268 268 268 268 269 269 270 271 272 273 275 276 278 279 280 281 282 284 285 287 288 289 290 291 292 293 293
258 260 262 264 265 265 264 263 263 262 262 262 262 261 260 260 261 261 262 264 265 263 261 263 266 266 265 265 264 264 263 263 265 268 270 270 269 268 268 266 264 263 262 261 260 260 261 262 263 265 267 268 269 270 270 270 270 270 270 270 270 269 269 269 269 270 270 272 273 275 276 278 279 280 281 282 283 284 286 287 288 289 290 291 292 292
258 260 262 263 264 265 265 265 264 263 261 261 262 263 262 262 263 262 262 262 263 263 262 262 262 262 265 266 264 264 264 264 266 267 268 268 269 269 268 268 267 265 264 262 262 262 261 261 263 265 267 268 269 270 270 271 271 271 271 271 271 271 271 271 271 271 271 272 273 275 276 277 278 279 280 281 282 283 284 285 287 288 289 290 291 291
257 260 260 261 263 264 265 266 265 263 261 261 261 262 262 263 263 264 264 262 262 263 264 264 261 257 262 265 264 266 268 266 265 265 266 268 270 269 269 268 268 266 265 264 263 263 263 262 262 263 265 266 267 269 269 270 271 272 272 272 272 272 272 272 272 272 273 273 274 274 275 276 277 278 279 280 281 282 283 284 285 286 288 289 290 291
256 258 259 260 261 263 264 264 264 263 262 261 261 261 262 262 262 263 264 264 263 263 264 266 263 256 256 262 265 268 268 265 264 264 265 267 268 269 269 269 268 267 266 266 266 266 266 265 264 264 265 266 266 267 268 269 271 272 273 273 272 272 273 273 273 273 274 274 274 275 275 276 277 278 278 279 280 281 283 283 284 286 287 289 290 290
253 256 259 260 260 261 262 262 263 263 263 262 261 260 261 260 260 260 261 264 264 265 267 266 263 258 251 258 267 269 267 265 265 264 263 264 266 268 269 269 269 270 269 269 269 269 269 268 267 266 266 266 267 268 269 269 270 271 273 273 274 274 274 274 274 274 275 275 275 276 276 277 277 278 279 279 280 281 282 283 284 285 287 288 288 289
253 255 256 258 259 260 260 260 262 263 263 262 261 260 259 259 259 259 261 263 264 265 266 262 260 260 253 253 261 265 267 268 267 265 264 264 265 266 267 268 268 269 270 270 270 270 270 270 270 269 268 268 268 269 269 269 270 271 272 273 274 274 274 275 275 275 276 276 276 277 277 277 278 278 279 280 280 281 282 283 284 285 286 287 288 289
252 252 253 255 256 258 259 261 262 262 262 261 260 260 259 260 260 261 261 262 262 262 261 259 261 267 263 251 251 256 262 267 269 269 268 267 267 266 267 267 267 268 268 268 269 269 269 269 270 270 270 270 270 270 270 270 271 272 272 273 273 274 274 275 276 276 277 277 277 278 278 278 278 279 279 280 281 281 282 283 284 285 286 287 289 290
250 250 251 253 254 256 258 260 260 261 261 261 261 261 261 261 261 262 262 262 262 259 259 261 265 271 266 249 247 251 256 262 268 271 272 272 271 269 268 267 267 267 268 268 268 268 268 268 268 269 270 270 271 271 271 271 272 272 273 273 274 274 275 276 277 277 277 277 277 277 277 278 278 279 280 280 281 282 282 283 284 286 287 288 289 290
250 250 251 252 253 254 255 256 257 259 261 262 263 263 263 263 263 264 264 263 262 260 260 264 267 268 263 254 251 252 256 262 267 270 271 273 273 273 272 271 270 270 270 270 270 269 269 269 269 270 270 270 269 270 271 272 272 273 273 274 274 275 276 277 277 277 277 277 277 277 278 278 279 279 280 281 281 282 283 284 285 286 287 288 288 289
249 250 251 252 252 252 252 254 255 257 259 261 263 265 266 267 267 265 264 264 263 262 262 264 266 266 263 260 259 259 261 263 264 267 269 271 273 273 274 274 274 274 273 272 272 271 271 271 271 271 271 271 270 271 272 272 273 273 274 274 275 276 277 277 277 277 277 278 278 278 279 279 280 280 281 281 282 283 284 285 286 286 287 287 288 289
249 250 251 251 250 250 251 252 254 255 258 261 264 267 269 271 269 265 263 263 263 262 261 262 263 263 262 262 264 265 265 263 262 264 268 270 271 272 273 274 275 275 274 274 273 273 274 274 274 273 273 273 273 273 274 274 274 275 275 276 276 277 277 277 278 278 278 278 279 279 279 279 280 280 281 282 283 284 285 285 285 286 286 287 288 289
249 248 248 248 249 250 251 252 254 257 260 263 265 268 270 269 267 265 263 261 260 259 260 262 262 261 261 262 264 265 265 266 266 267 268 268 269 269 270 271 272 273 274 274 274 274 275 275 275 275 275 274 275 275 275 275 275 276 276 276 276 276 277 277 277 278 278 278 278 278 279 279 280 281 282 283 283 284 284 285 286 286 287 288 289 291
247 246 246 247 249 251 253 254 257 259 262 264 266 267 266 265 266 266 264 262 260 259 260 263 263 261 261 262 264 265 267 269 272 272 269 267 267 267 268 269 269 270 271 271 272 273 273 274 274 275 275 275 275 276 276 276 276 276 276 276 276 276 276 276 277 277 277 277 277 278 279 280 281 281 282 282 283 284 285 286 286 287 288 289 291 292
244 246 247 248 250 252 254 256 258 261 263 264 264 263 262 263 265 265 265 264 264 264 263 262 262 261 261 263 264 267 270 273 274 272 270 269 269 268 269 269 270 270 270 270 270 271 272 272 273 273 274 274 275 275 275 276 276 276 276 276 276 276 277 277 277 278 278 278 278 278 279 280 280 281 282 282 283 284 285 286 287 288 290 291 292 293
245 246 248 250 252 254 255 257 260 262 263 262 260 260 261 262 263 264 266 267 268 268 265 261 260 261 262 263 264 268 272 274 273 271 271 272 272 271 271 271 271 271 271 271 271 271 271 272 272 272 273 273 274 274 275 275 275 275 275 276 276 277 278 278 278 278 278 278 278 279 279 280 280 281 282 283 284 285 286 287 289 290 291 292 292 293
246 248 249 251 253 255 257 259 260 259 259 259 259 261 263 264 265 266 267 268 268 268 265 260 258 260 263 264 265 268 271 271 270 270 271 272 272 273 273 273 274 273 273 273 274 274 273 273 274 274 274 274 275 275 275 275 275 276 276 277 277 278 278 278 278 279 279 279 279 279 280 280 281 281 282 283 284 285 287 288 289 290 291 292 293 293
248 250 251 251 252 255 258 259 258 257 258 260 262 264 266 267 267 267 268 269 269 268 266 261 257 258 265 266 265 267 271 270 269 269 270 270 271 271 272 274 274 275 274 275 275 275 275 275 276 276 277 277 277 277 278 277 277 278 278 278 279 279 280 280 280 280 280 280 280 280 281 281 282 282 283 284 285 286 287 289 290 291 292 292 293 294
250 251 251 251 252 255 256 256 257 258 260 262 263 265 266 267 268 269 269 270 269 267 266 265 260 258 264 266 265 267 270 270 269 269 269 269 270 272 273 274 274 275 275 275 276 276 276 276 277 278 278 279 279 279 279 279 279 279 280 280 280 280 280 280 280 280 280 280 281 281 282 282 283 283 284 285 286 287 288 289 291 292 292 293 293 294
250 251 252 253 253 253 254 255 257 258 259 260 263 265 266 266 267 268 268 267 267 267 270 271 267 262 266 270 265 261 265 267 268 270 271 272 273 274 275 275 275 277 278 278 278 277 277 277 278 278 278 279 279 279 279 279 280 280 280 280 280 279 279 279 280 280 281 281 282 282 283 283 283 284 285 286 287 288 289 290 291 292 292 293 294 294
250 252 252 252 252 252 253 255 256 258 259 260 261 261 261 262 263 264 265 265 267 269 272 272 272 270 271 272 264 258 262 266 267 269 271 273 274 274 275 277 278 279 279 280 279 278 278 278 278 278 278 278 278 278 279 279 279 279 279 279 279 279 279 280 281 281 282 283 283 283 283 284 284 285 286 287 288 289 290 291 291 292 293 293 294 294
250 252 253 253 253 254 256 258 259 260 259 258 257 257 257 259 261 263 265 266 268 271 272 272 274 275 273 271 267 263 264 266 268 270 272 273 273 274 276 279 280 280 279 278 278 279 279 279 278 277 277 277 278 279 279 279 278 278 278 278 279 279 280 281 282 283 283 284 284 284 284 285 286 287 288 289 289 290 290 291 292 292 293 294 294 294
250 252 253 255 256 257 258 260 259 258 257 256 257 258 260 261 263 265 266 268 271 273 273 273 276 276 274 273 272 270 268 267 269 271 272 272 273 275 277 279 280 280 279 279 279 279 280 280 279 279 278 278 279 279 279 279 279 279 279 279 280 282 283 284 284 285 285 285 285 286 286 287 288 288 288 289 289 290 291 292 293 293 294 294 294 294
249 251 253 255 257 258 258 258 257 257 257 259 260 261 261 262 264 265 267 271 275 274 272 275 277 275 273 274 274 273 272 271 271 270 270 271 273 274 276 277 277 278 279 279 279 279 280 280 279 279 279 279 280 280 281 280 280 280 281 282 283 284 285 285 286 286 286 286 287 287 287 288 288 289 289 290 290 291 291 293 294 295 294 294 294 294
249 251 253 255 256 257 257 257 258 258 259 261 261 262 263 264 264 266 269 273 273 272 272 274 275 273 274 275 275 275 274 273 271 270 270 272 273 274 273 273 274 276 277 278 279 279 279 279 279 279 279 279 280 281 281 281 281 282 283 284 285 285 286 286 287 287 287 287 287 287 288 288 289 289 290 290 290 291 292 293 294 294 294 294 293 293
250 251 253 254 255 255 256 257 258 260 260 261 262 263 264 265 267 269 272 272 271 271 273 274 273 273 274 274 276 277 276 275 274 275 276 276 274 274 273 273 273 274 275 276 277 278 278 278 278 278 279 279 280 280 280 280 281 282 284 284 285 285 286 286 287 287 287 287 287 287 288 289 289 289 289 290 291 292 292 293 293 293 293 293 293 293
248 250 251 253 254 254 254 256 258 260 261 261 262 263 264 266 269 271 272 271 271 272 274 273 271 272 273 275 278 278 277 278 280 280 280 279 277 277 276 275 274 274 273 273 274 275 277 277 278 278 279 280 280 280 280 281 282 283 284 284 285 285 285 286 286 286 287 287 287 287 288 288 288 289 289 290 290 291 292 292 292 292 292 292 292 293
247 249 250 252 253 253 254 256 257 259 260 261 261 263 265 268 270 271 271 272 272 273 273 272 271 274 279 280 279 278 279 281 282 282 281 281 281 280 279 277 276 274 273 272 272 273 275 276 277 278 279 279 279 280 280 281 282 283 283 283 284 284 284 285 285 286 286 286 287 287 287 287 288 288 289 289 290 290 291 291 292 292 292 292 293 294
248 249 250 251 251 252 253 254 256 258 259 260 261 263 267 269 269 269 270 271 272 273 274 273 275 279 282 280 279 280 282 282 282 282 282 283 282 281 280 279 277 275 274 274 274 274 274 276 277 278 279 279 280 280 280 281 282 282 282 282 283 283 284 284 285 285 285 285 285 285 286 286 287 287 288 289 289 290 290 291 291 292 292 293 294 295
249 251 251 252 252 252 252 253 255 256 257 259 262 265 266 266 266 267 269 271 273 274 275 276 278 281 280 279 280 281 281 281 282 283 283 283 283 283 282 280 278 277 276 276 276 276 277 277 278 279 279 280 280 280 280 281 281 281 281 282 282 283 284 284 285 285 284 284 284 284 285 285 286 287 287 288 289 290 291 291 291 292 293 294 295 296
249 251 252 253 254 253 252 253 254 255 257 260 263 264 264 264 266 268 269 271 272 274 275 277 278 279 279 280 280 279 280 281 282 282 282 283 283 283 283 282 280 279 278 279 279 280 280 280 280 280 280 280 280 280 280 280 280 280 280 281 282 282 283 283 283 283 283 283 283 283 284 285 286 287 288 289 290 290 291 291 292 293 294 295 296 297
251 252 253 254 255 255 254 254 254 255 258 261 262 262 263 265 267 268 269 269 270 272 274 275 276 278 278 279 279 279 279 279 279 280 281 281 281 282 282 283 283 282 282 283 283 284 284 284 283 282 281 281 281 281 281 280 280 280 280 281 281 282 282 282 282 282 282 283 283 284 285 286 287 288 289 289 290 291 292 292 293 294 295 296 297 298
255 255 255 255 255 255 255 255 255 256 258 258 259 261 264 266 267 267 267 267 269 271 273 275 276 277 277 277 278 278 277 277 278 280 280 279 278 279 281 282 284 284 285 284 284 285 286 285 284 283 282 282 281 281 281 281 281 282 282 282 282 282 283 283 283 283 284 284 285 286 287 288 289 289 290 290 291 292 293 294 294 295 297 298 298 299
257 257 257 257 257 257 257 257 257 257 257 257 259 262 263 263 264 265 266 267 269 272 274 276 277 276 276 275 275 276 276 277 278 279 278 276 276 278 280 281 282 283 284 284 285 285 286 285 284 284 283 283 283 282 282 282 282 283 283 283 283 284 284 284 284 285 285 285 286 287 288 289 290 290 291 292 293 294 294 295 296 297 298 299 299 300
258 258 258 259 259 259 259 259 259 260 260 261 261 262 262 263 264 266 267 268 271 273 275 276 276 275 274 274 274 275 276 278 279 278 276 275 277 278 279 280 281 281 282 283 284 285 285 284 284 284 284 284 284 284 284 284 284 285 285 285 285 285 285 285 285 285 286 287 288 289 290 291 291 292 293 294 295 295 296 297 298 299 299 300 300 300
259 260 260 261 261 261 261 261 262 263 264 265 264 264 265 265 266 267 268 270 273 274 274 274 275 275 274 275 275 276 277 278 279 277 276 277 278 279 279 280 281 281 282 283 283 283 283 283 283 284 285 285 285 285 285 285 286 286 286 285 285 286 286 286 287 288 289 291 291 292 292 293 293 294 295 296 297 298 298 299 300 300 300 301 301 301
260 260 261 261 262 263 263 263 264 266 267 267 266 266 267 267 268 268 270 272 273 272 272 274 276 277 278 278 278 278 278 278 278 278 277 278 278 279 280 281 281 281 282 282 282 282 282 282 283 284 284 285 285 285 285 286 286 286 287 287 288 289 289 290 291 293 293 294 294 294 294 295 296 296 297 298 298 299 300 300 300 300 300 300 301 301
259 259 260 261 262 263 264 265 266 267 267 268 268 268 269 269 269 270 272 273 272 272 274 276 278 279 280 281 281 281 281 281 280 280 280 279 279 280 281 281 281 282 282 282 282 282 283 283 284 285 285 286 286 287 287 287 288 289 290 290 291 292 293 293 294 295 295 295 295 295 296 297 297 298 298 299 299 300 300 300 300 300 300 300 301 302
259 259 260 261 262 264 265 266 267 267 268 269 270 270 270 270 270 271 272 273 274 275 276 277 278 279 280 280 281 281 282 282 283 283 283 283 282 282 282 282 283 283 283 283 283 283 284 285 286 286 287 288 288 289 289 290 290 291 292 292 293 293 294 295 295 295 295 295 296 296 297 297 298 298 298 299 299 299 299 299 300 300 300 301 301 302
259 260 260 261 262 264 265 266 267 269 270 270 270 271 271 272 272 273 274 274 275 276 276 277 278 278 279 280 280 281 282 283 284 284 285 285 285 284 284 285 285 285 285 285 285 285 286 287 288 289 289 290 290 291 291 292 292 293 293 293 294 294 294 294 294 295 295 295 296 296 296 296 297 297 297 298 298 298 299 299 299 300 300 301 301 302
259 260 261 262 263 264 264 266 267 269 269 270 271 272 273 274 274 274 275 275 276 276 277 277 278 278 279 280 280 281 282 283 283 284 285 285 285 286 286 286 286 287 287 287 287 288 288 289 290 290 291 291 292 292 292 293 293 293 293 293 293 293 293 293 294 294 294 295 295 295 295 295 296 296 296 297 297 298 298 299 299 300 300 301 301 301
259 260 261 261 262 263 264 265 266 268 269 271 272 273 274 274 274 275 275 276 276 276 277 277 277 278 279 280 280 281 282 282 283 284 284 285 285 286 286 287 287 288 288 288 288 289 289 289 290 290 290 291 291 292 292 292 292 292 292 292 292 292 293 293 293 294 294 294 294 294 295 295 295 296 296 297 297 297 298 298 299 299 299 300 300 300
258 259 260 260 261 262 263 265 266 268 269 270 271 272 273 273 274 275 275 276 276 277 277 277 278 278 279 279 280 281 281 282 282 283 283 284 285 285 286 286 287 287 287 288 288 288 288 289 289 289 289 290 291 291 291 291 291 292 292 292 292 293 293 293 293 293 294 294 294 295 295 295 295 296 296 296 297 297 297 298 298 298 298 299 299 299
258 258 259 260 261 262 263 265 267 268 269 270 270 271 272 272 273 274 274 275 276 276 277 278 278 278 279 279 280 280 280 281 282 282 283 284 284 285 285 286 286 286 287 287 287 287 287 288 288 288 289 289 290 290 291 291 291 291 292 292 292 293 293 293 293 294 294 294 294 294 295 295 295 295 295 295 296 296 296 297 297 297 297 298 298 298
257 258 258 259 261 262 264 265 266 267 268 269 269 269 270 270 271 272 273 274 275 276 276 277 277 278 278 279 279 280 280 281 282 283 283 284 284 284 285 285 286 286 286 287 287 287 287 288 288 288 289 289 290 290 290 291 291 291 292 292 292 293 293 293 293 293 293 293 293 293 293 294 294 294 294 295 295 295 295 296 296 296 297 297 297 298
257 258 259 260 261 262 264 265 265 265 266 267 268 269 269 270 271 272 273 274 275 275 276 276 277 277 278 278 279 280 281 281 282 283 283 284 284 285 285 286 286 287 287 287 288 288 288 288 289 289 289 290 290 291 291 291 291 292 292 292 292 292 292 292 292 292 292 292 292 292 292 293 293 293 293 294 294 294 295 295 295 296 296 297 297 298
256 258 259 260 261 262 263 264 264 265 267 268 268 269 269 270 271 272 272 273 274 275 276 276 276 277 278 278 279 279 280 281 281 282 282 283 284 285 285 286 286 287 287 287 287 288 288 288 288 289 289 289 290 290 290 291 291 290 290 290 290 290 290 290 290 290 290 290 291 291 291 292 292 292 293 293 293 294 294 295 296 296 296 297 297 298
256 257 259 260 261 262 263 263 264 266 267 268 268 269 270 271 271 272 272 273 274 275 275 276 277 277 278 278 278 279 279 280 280 281 282 282 283 284 284 285 285 285 285 286 286 286 286 287 287 287 288 288 289 289 289 289 289 289 289 289 289 289 289 289 289 289 290 290 290 291 291 291 292 292 293 293 294 294 295 295 296 296 297 297 297 297
Height
10757 10758 10757 10753 10753 10757 10761 10762 10762 10763 10764 10766 10767 10768 10767 10768 10767 10767 10770 10771 10770 10773 10774 10773 10776 10773 10771 10772 10773 10773 10773 10771 10770 10770 10771 10772 10773 10773 10774 10774 10773 10773 10774 10773 10774 10773 10773 10773 10772 10772 10772 10772 10772 10771 10772 10771 10770 10770 10770 10770 10770 10769 10769 10769 10768 10767 10765 10765 10764 10763 10763 10762 10760 10759 10758 10757 10755 10754 10752 10751 10749 10747 10746 10744 10742 10740
10752 10753 10749 10746 10750 10755 10756 10756 10757 10758 10760 10761 10762 10763 10764 10763 10762 10763 10765 10767 10768 10771 10771 10770 10773 10771 10768 10769 10770 10769 10769 10766 10765 10766 10766 10768 10770 10769 10769 10769 10770 10769 10769 10769 10769 10769 10769 10769 10768 10768 10769 10769 10769 10768 10768 10768 10767 10766 10766 10766 10766 10765 10764 10764 10763 10762 10761 10759 10758 10757 10757 10756 10755 10754 10753 10751 10750 10748 10747 10745 10743 10742 10740 10739 10737 10735
10747 10746 10742 10742 10747 10750 10750 10751 10752 10753 10754 10755 10757 10759 10759 10758 10758 10759 10760 10763 10766 10768 10768 10767 10770 10769 10765 10765 10764 10764 10765 10762 10760 10761 10761 10763 10765 10764 10764 10765 10766 10764 10764 10764 10765 10765 10765 10765 10764 10764 10765 10765 10765 10764 10763 10764 10763 10763 10763 10762 10762 10761 10760 10759 10758 10757 10756 10755 10753 10752 10751 10750 10749 10748 10747 10746 10744 10743 10741 10740 10738 10736 10735 10733 10731 10729
10741 10740 10737 10738 10742 10744 10744 10745 10746 10747 10748 10749 10751 10753 10754 10753 10754 10756 10756 10758 10762 10765 10764 10763 10766 10766 10761 10762 10759 10757 10760 10758 10756 10757 10757 10758 10759 10759 10760 10761 10761 10760 10760 10760 10760 10761 10761 10761 10760 10759 10760 10761 10760 10760 10759 10759 10759 10759 10759 10758 10758 10757 10756 10754 10753 10752 10751 10750 10748 10747 10746 10745 10744 10743 10742 10740 10739 10737 10736 10734 10732 10731 10729 10727 10725 10723
10736 10733 10733 10735 10736 10737 10737 10739 10741 10742 10743 10743 10744 10747 10748 10747 10749 10752 10752 10755 10758 10760 10761 10760 10764 10762 10757 10757 10754 10750 10755 10754 10752 10754 10753 10753 10753 10754 10756 10756 10756 10756 10756 10755 10755 10756 10757 10757 10756 10755 10756 10756 10756 10755 10755 10755 10754 10754 10754 10754 10753 10752 10751 10750 10749 10747 10746 10745 10744 10742 10741 10740 10739 10737 10736 10735 10733 10732 10730 10728 10727 10725 10723 10721 10719 10716
10731 10728 10729 10730 10730 10730 10731 10733 10734 10734 10736 10737 10739 10740 10740 10742 10744 10747 10749 10751 10754 10756 10756 10757 10761 10760 10753 10752 10747 10743 10750 10751 10749 10749 10747 10747 10748 10750 10751 10750 10751 10752 10751 10751 10751 10751 10753 10753 10752 10751 10751 10751 10751 10751 10750 10750 10749 10749 10749 10749 10748 10747 10746 10745 10744 10742 10741 10740 10739 10738 10736 10735 10733 10732 10731 10729 10728 10726 10725 10723 10721 10719 10717 10714 10712 10709
10727 10722 10721 10724 10724 10725 10727 10727 10725 10725 10728 10732 10734 10733 10733 10737 10739 10741 10743 10746 10750 10752 10751 10752 10756 10757 10751 10746 10741 10739 10745 10746 10744 10744 10742 10742 10744 10745 10745 10745 10746 10746 10746 10746 10746 10747 10748 10748 10748 10747 10746 10746 10746 10746 10746 10745 10744 10744 10744 10743 10743 10742 10741 10740 10739 10737 10736 10735 10733 10732 10731 10729 10728 10726 10725 10723 10722 10720 10718 10717 10715 10712 10710 10707 10705 10702
10721 10714 10714 10718 10719 10720 10721 10718 10715 10716 10721 10726 10728 10726 10728 10732 10734 10736 10737 10741 10746 10748 10749 10748 10747 10752 10751 10741 10736 10737 10740 10739 10737 10738 10738 10738 10739 10739 10740 10739 10739 10740 10740 10741 10741 10742 10743 10744 10743 10742 10742 10741 10741 10741 10741 10740 10739 10739 10738 10738 10737 10736 10735 10734 10733 10732 10730 10729 10728 10726 10725 10723 10722 10720 10719 10717 10716 10714 10712 10710 10708 10705 10703 10700 10697 10695
10713 10710 10710 10711 10712 10714 10713 10709 10707 10708 10713 10718 10720 10720 10721 10724 10727 10731 10733 10737 10741 10744 10748 10743 10736 10745 10751 10740 10732 10732 10732 10730 10730 10732 10733 10733 10734 10734 10735 10734 10734 10734 10734 10735 10736 10736 10737 10738 10738 10737 10736 10736 10736 10736 10735 10735 10734 10733 10732 10732 10731 10730 10730 10728 10727 10726 10725 10723 10722 10720 10719 10717 10715 10714 10712 10711 10709 10707 10705 10703 10700 10698 10695 10693 10690 10688
10706 10707 10705 10704 10705 10706 10704 10702 10701 10702 10705 10709 10711 10713 10715 10717 10721 10726 10730 10733 10736 10741 10743 10734 10726 10738 10749 10741 10731 10726 10723 10722 10723 10724 10727 10728 10729 10730 10729 10730 10730 10730 10730 10730 10730 10730 10731 10731 10731 10731 10730 10730 10730 10730 10729 10729 10728 10728 10727 10726 10725 10724 10723 10722 10720 10719 10718 10717 10715 10714 10712 10710 10709 10707 10705 10704 10702 10700 10697 10695 10693 10690 10688 10685 10683 10681
10700 10700 10698 10698 10699 10698 10696 10696 10695 10694 10696 10699 10702 10705 10708 10712 10716 10721 10726 10727 10731 10738 10734 10722 10723 10737 10748 10741 10727 10721 10718 10716 10715 10716 10719 10722 10723 10724 10724 10725 10725 10725 10725 10725 10725 10725 10725 10725 10725 10724 10724 10724 10724 10723 10723 10722 10722 10722 10721 10720 10719 10718 10717 10715 10714 10713 10712 10710 10709 10707 10705 10704 10702 10700 10698 10697 10695 10692 10690 10688 10685 10683 10681 10679 10676 10674
10692 10691 10691 10692 10693 10692 10691 10689 10686 10684 10686 10689 10694 10699 10701 10707 10712 10716 10720 10721 10725 10730 10724 10717 10723 10736 10744 10736 10722 10715 10713 10712 10712 10711 10711 10713 10715 10717 10719 10720 10720 10719 10719 10719 10719 10719 10720 10720 10720 10719 10719 10718 10718 10717 10716 10716 10716 10716 10715 10714 10712 10711 10710 10709 10708 10707 10705 10703 10702 10700 10698 10697 10695 10693 10691 10690 10687 10685 10683 10680 10678 10676 10674 10672 10669 10666
10683 10683 10684 10686 10687 10687 10684 10680 10678 10678 10679 10681 10687 10692 10695 10701 10706 10711 10713 10714 10718 10722 10718 10716 10722 10731 10735 10727 10717 10712 10709 10708 10710 10707 10705 10706 10706 10708 10710 10713 10714 10714 10714 10714 10714 10714 10714 10714 10714 10714 10714 10713 10713 10711 10711 10711 10710 10710 10709 10707 10706 10705 10704 10703 10701 10700 10698 10696 10695 10693 10691 10689 10688 10686 10684 10682 10680 10677 10675 10673 10671 10669 10666 10664 10661 10658
10674 10675 10677 10679 10679 10678 10674 10672 10672 10672 10672 10676 10682 10684 10689 10695 10700 10705 10706 10706 10711 10714 10713 10714 10718 10725 10725 10717 10712 10711 10708 10706 10704 10701 10700 10701 10700 10700 10702 10704 10707 10708 10709 10708 10707 10707 10707 10708 10708 10708 10708 10707 10706 10706 10705 10705 10704 10703 10702 10701 10700 10699 10697 10696 10694 10692 10690 10689 10687 10686 10684 10682 10680 10679 10676 10674 10672 10670 10668 10666 10663 10661 10658 10655 10652 10649
10665 10668 10671 10669 10668 10667 10665 10665 10666 10666 10668 10674 10677 10679 10684 10687 10688 10695 10699 10700 10705 10707 10708 10710 10714 10718 10716 10710 10708 10707 10704 10700 10698 10698 10697 10696 10694 10694 10694 10696 10699 10700 10701 10702 10701 10701 10700 10701 10701 10702 10701 10700 10700 10700 10699 10698 10697 10696 10695 10694 10693 10691 10690 10688 10686 10685 10683 10681 10680 10678 10676 10675 10673 10671 10669 10667 10665 10663 10660 10658 10655 10653 10650 10647 10644 10641
10655 10659 10660 10656 10656 10657 10657 10659 10662 10663 10666 10671 10674 10676 10679 10677 10677 10685 10692 10695 10697 10700 10703 10706 10709 10711 10708 10706 10704 10701 10696 10692 10693 10695 10694 10691 10689 10688 10689 10690 10692 10693 10694 10695 10694 10694 10694 10694 10694 10694 10694 10694 10693 10693 10692 10691 10690 10689 10688 10687 10685 10684 10682 10680 10679 10677 10676 10674 10672 10671 10669 10668 10666 10663 10661 10659 10657 10655 10652 10650 10647 10644 10641 10638 10636 10633
10643 10645 10647 10647 10649 10650 10651 10655 10658 10660 10663 10668 10671 10671 10669 10668 10670 10677 10684 10687 10689 10694 10702 10703 10704 10704 10702 10702 10699 10694 10691 10688 10688 10689 10686 10684 10683 10682 10683 10684 10686 10688 10689 10688 10688 10688 10688 10688 10688 10687 10687 10687 10686 10686 10685 10684 10683 10682 10681 10679 10678 10676 10675 10673 10671 10670 10668 10667 10665 10663 10662 10660 10658 10655 10653 10651 10649 10647 10644 10641 10639 10636 10633 10630 10627 10624
10630 10633 10638 10641 10643 10645 10647 10650 10654 10657 10659 10663 10665 10662 10659 10662 10667 10668 10672 10679 10681 10688 10698 10699 10698 10698 10697 10698 10694 10688 10688 10686 10683 10681 10676 10675 10676 10676 10677 10678 10680 10681 10681 10682 10682 10682 10682 10681 10681 10681 10680 10680 10679 10679 10678 10677 10676 10675 10673 10672 10670 10669 10667 10666 10665 10663 10661 10659 10657 10656 10654 10652 10650 10647 10645 10643 10641 10638 10636 10633 10630 10627 10624 10621 10618 10614
10622 10626 10632 10636 10638 10640 10641 10645 10651 10654 10653 10653 10654 10653 10653 10657 10661 10661 10664 10672 10674 10680 10690 10692 10693 10693 10693 10693 10690 10686 10686 10681 10676 10672 10668 10668 10668 10668 10670 10671 10672 10673 10673 10674 10675 10675 10675 10675 10675 10674 10674 10673 10672 10671 10670 10669 10668 10667 10666 10665 10663 10662 10660 10659 10657 10655 10653 10652 10650 10648 10646 10644 10642 10639 10637 10635 10632 10630 10627 10624 10621 10618 10615 10612 10608 10605
10615 10618 10625 10632 10633 10632 10635 10642 10647 10646 10642 10641 10644 10647 10649 10652 10655 10655 10658 10664 10667 10671 10678 10684 10688 10690 10689 10688 10685 10684 10683 10675 10668 10666 10663 10661 10661 10661 10662 10663 10664 10665 10665 10666 10666 10667 10667 10667 10667 10667 10666 10666 10665 10664 10663 10661 10660 10659 10658 10657 10655 10654 10653 10651 10649 10647 10646 10644 10642 10640 10638 10636 10633 10631 10629 10626 10624 10621 10618 10616 10613 10609 10606 10602 10598 10594
10608 10612 10620 10625 10625 10626 10632 10636 10635 10633 10632 10635 10640 10644 10645 10645 10647 10648 10651 10655 10658 10661 10666 10672 10682 10688 10685 10681 10680 10681 10677 10666 10661 10661 10658 10655 10654 10654 10656 10657 10657 10657 10658 10659 10659 10659 10659 10659 10659 10659 10659 10658 10657 10656 10655 10654 10653 10652 10651 10649 10648 10646 10645 10643 10641 10639 10638 10636 10634 10632 10630 10628 10625 10622 10620 10617 10615 10612 10609 10606 10603 10600 10596 10592 10587 10583
10603 10605 10609 10612 10617 10623 10625 10624 10624 10627 10630 10632 10634 10637 10638 10637 10637 10639 10644 10648 10646 10649 10655 10662 10676 10686 10680 10672 10676 10677 10668 10657 10654 10654 10652 10649 10648 10649 10650 10650 10650 10650 10650 10652 10654 10653 10652 10652 10652 10652 10651 10650 10649 10648 10647 10646 10645 10644 10643 10642 10640 10638 10636 10635 10633 10631 10630 10628 10626 10624 10622 10619 10616 10614 10611 10608 10606 10603 10600 10597 10594 10590 10585 10581 10576 10572
10593 10593 10597 10603 10612 10616 10615 10616 10620 10623 10625 10626 10629 10632 10631 10629 10629 10629 10633 10636 10635 10641 10650 10652 10665 10680 10675 10667 10671 10670 10658 10650 10649 10648 10645 10645 10644 10643 10643 10643 10643 10644 10644 10645 10646 10646 10646 10646 10645 10645 10643 10642 10641 10640 10639 10638 10637 10636 10635 10633 10632 10630 10628 10626 10625 10623 10622 10620 10618 10616 10613 10610 10607 10604 10602 10599 10596 10594 10591 10587 10583 10579 10575 10570 10566 10562
10583 10582 10587 10593 10600 10604 10605 10610 10616 10618 10621 10623 10625 10625 10621 10620 10620 10617 10621 10626 10628 10639 10645 10641 10652 10670 10667 10660 10663 10660 10651 10646 10644 10642 10641 10640 10638 10636 10636 10637 10638 10639 10638 10637 10637 10637 10637 10638 10638 10637 10635 10634 10633 10632 10631 10630 10629 10628 10626 10624 10623 10621 10619 10618 10617 10615 10613 10611 10609 10607 10604 10600 10597 10595 10592 10589 10586 10584 10580 10577 10573 10568 10564 10560 10555 10551
10573 10572 10575 10579 10587 10595 10599 10605 10612 10615 10614 10612 10612 10612 10612 10612 10610 10608 10614 10616 10622 10637 10637 10630 10644 10658 10654 10650 10653 10651 10648 10642 10637 10636 10635 10632 10630 10630 10632 10633 10633 10631 10631 10630 10629 10628 10628 10629 10629 10628 10627 10626 10625 10624 10623 10621 10620 10618 10617 10615 10614 10612 10611 10610 10608 10607 10605 10602 10599 10596 10593 10590 10588 10585 10582 10579 10576 10573 10570 10566 10562 10557 10553 10548 10544 10540
10563 10563 10565 10567 10577 10589 10596 10601 10604 10602 10595 10595 10601 10604 10605 10605 10603 10603 10606 10607 10619 10633 10626 10621 10636 10644 10640 10640 10642 10642 10640 10636 10633 10631 10627 10623 10623 10627 10628 10627 10625 10622 10622 10622 10622 10622 10620 10619 10619 10618 10618 10618 10617 10615 10614 10612 10610 10608 10607 10606 10605 10604 10603 10601 10599 10597 10595 10592 10589 10586 10583 10580 10577 10574 10572 10569 10565 10562 10559 10555 10550 10546 10541 10537 10532 10529
10555 10555 10557 10561 10571 10584 10592 10592 10589 10585 10582 10587 10595 10596 10595 10597 10597 10596 10598 10606 10616 10616 10613 10620 10627 10627 10630 10631 10630 10631 10630 10627 10627 10622 10618 10618 10619 10622 10623 10620 10618 10616 10615 10615 10615 10614 10613 10611 10610 10609 10609 10608 10607 10606 10605 10602 10600 10598 10597 10597 10596 10595 10593 10590 10589 10588 10585 10582 10579 10576 10573 10569 10567 10564 10561 10558 10554 10550 10547 10543 10539 10535 10530 10525 10521 10517
10548 10548 10553 10558 10565 10576 10582 10579 10573 10573 10576 10581 10585 10586 10587 10589 10589 10589 10596 10607 10605 10594 10604 10622 10614 10611 10625 10624 10617 10620 10618 10614 10615 10611 10610 10615 10615 10614 10615 10613 10612 10611 10609 10608 10607 10606 10605 10602 10601 10600 10599 10599 10598 10596 10594 10591 10590 10589 10589 10588 10586 10584 10582 10579 10578 10577 10574 10571 10568 10565 10561 10559 10556 10553 10550 10546 10542 10539 10536 10532 10528 10524 10519 10515 10511 10506
10541 10541 10547 10551 10555 10566 10573 10567 10560 10564 10568 10571 10574 10577 10580 10580 10581 10587 10593 10597 10588 10580 10599 10615 10601 10601 10618 10615 10608 10610 10604 10599 10602 10601 10604 10607 10605 10606 10608 10607 10607 10605 10603 10601 10599 10597 10596 10594 10592 10591 10590 10590 10589 10587 10584 10582 10581 10580 10579 10578 10576 10574 10571 10568 10567 10565 10563 10560 10557 10553 10551 10548 10545 10542 10538 10535 10531 10528 10525 10522 10518 10513 10509 10504 10499 10495
10533 10534 10539 10542 10546 10556 10563 10557 10552 10554 10557 10561 10565 10567 10572 10575 10578 10583 10584 10581 10575 10574 10591 10600 10588 10593 10608 10606 10603 10599 10589 10588 10593 10592 10593 10593 10593 10597 10599 10600 10600 10597 10596 10594 10591 10589 10588 10585 10583 10582 10582 10581 10579 10576 10574 10573 10573 10572 10570 10568 10565 10563 10560 10558 10557 10555 10552 10549 10546 10543 10540 10537 10534 10531 10528 10525 10521 10518 10515 10511 10508 10503 10498 10493 10488 10484
10525 10528 10532 10535 10536 10546 10555 10551 10543 10544 10546 10548 10553 10558 10567 10574 10575 10572 10570 10568 10564 10567 10579 10580 10575 10589 10602 10596 10590 10586 10580 10582 10584 10581 10580 10580 10582 10586 10587 10589 10589 10587 10587 10586 10584 10582 10580 10577 10576 10574 10573 10572 10569 10567 10566 10564 10564 10563 10560 10558 10555 10553 10551 10549 10547 10544 10542 10539 10536 10533 10531 10527 10524 10521 10518 10515 10511 10508 10505 10501 10497 10492 10486 10480 10476 10472
10518 10520 10524 10525 10525 10537 10550 10541 10532 10536 10534 10531 10542 10559 10570 10570 10564 10558 10557 10558 10556 10557 10563 10563 10568 10587 10592 10579 10575 10576 10573 10572 10572 10570 10571 10571 10571 10573 10574 10576 10576 10575 10576 10574 10574 10574 10572 10569 10568 10566 10565 10562 10560 10559 10557 10556 10555 10553 10550 10548 10545 10543 10540 10539 10537 10534 10532 10529 10526 10524 10521 10517 10514 10511 10508 10505 10501 10497 10494 10489 10485 10479 10473 10468 10464 10460
10511 10510 10513 10514 10516 10529 10539 10529 10523 10525 10517 10519 10544 10565 10565 10555 10547 10546 10549 10552 10549 10546 10549 10553 10564 10577 10573 10564 10566 10567 10561 10560 10561 10561 10561 10562 10561 10561 10563 10564 10563 10563 10563 10563 10563 10562 10561 10561 10559 10558 10556 10553 10550 10549 10546 10546 10546 10543 10540 10537 10534 10532 10530 10528 10526 10524 10521 10518 10515 10513 10510 10506 10503 10500 10497 10494 10490 10486 10482 10477 10472 10466 10461 10456 10451 10448
10505 10502 10503 10504 10505 10515 10523 10519 10514 10508 10506 10526 10552 10556 10546 10539 10537 10538 10542 10544 10541 10537 10540 10546 10555 10562 10558 10553 10556 10556 10551 10551 10552 10552 10552 10552 10550 10550 10550 10551 10551 10551 10551 10552 10552 10552 10550 10550 10549 10548 10546 10542 10540 10537 10535 10535 10535 10532 10530 10528 10524 10522 10520 10517 10515 10513 10510 10507 10504 10502 10499 10495 10492 10490 10486 10482 10477 10473 10469 10464 10459 10454 10448 10444 10439 10435
10496 10496 10497 10496 10494 10500 10506 10505 10500 10499 10512 10535 10542 10536 10533 10533 10530 10528 10530 10533 10532 10530 10533 10538 10544 10551 10549 10543 10543 10543 10541 10539 10540 10545 10547 10543 10539 10537 10537 10538 10538 10538 10539 10540 10541 10540 10539 10537 10536 10535 10534 10531 10528 10525 10523 10522 10521 10520 10520 10518 10514 10511 10508 10506 10504 10501 10498 10496 10493 10491 10487 10483 10481 10478 10473 10469 10464 10460 10456 10450 10446 10441 10436 10431 10426 10420
10485 10486 10488 10487 10484 10486 10488 10488 10490 10498 10513 10525 10525 10527 10531 10527 10519 10514 10513 10520 10525 10524 10526 10529 10534 10540 10539 10533 10530 10528 10526 10525 10531 10541 10542 10533 10528 10525 10525 10528 10527 10526 10527 10528 10528 10528 10527 10524 10523 10522 10521 10519 10517 10513 10510 10509 10509 10508 10507 10505 10503 10500 10496 10494 10492 10489 10486 10484 10481 10478 10475 10472 10469 10464 10460 10456 10451 10447 10442 10437 10432 10427 10422 10417 10412 10406
10473 10473 10474 10473 10473 10475 10474 10476 10482 10487 10498 10514 10523 10525 10521 10513 10507 10500 10496 10508 10520 10520 10518 10519 10523 10527 10527 10522 10517 10513 10510 10514 10526 10536 10531 10519 10515 10516 10517 10519 10518 10515 10515 10515 10515 10515 10514 10511 10510 10509 10508 10507 10504 10501 10498 10497 10497 10496 10494 10492 10490 10487 10484 10482 10480 10476 10473 10471 10469 10466 10463 10459 10454 10450 10446 10442 10438 10433 10428 10423 10418 10413 10408 10402 10397 10391
10459 10460 10462 10460 10461 10464 10463 10464 10467 10470 10487 10511 10520 10513 10504 10501 10499 10489 10483 10499 10516 10516 10510 10505 10507 10511 10511 10507 10505 10503 10500 10505 10518 10526 10517 10505 10506 10509 10508 10509 10508 10506 10506 10504 10503 10503 10501 10499 10498 10496 10495 10494 10491 10489 10487 10485 10485 10484 10482 10480 10477 10474 10472 10469 10466 10463 10461 10458 10456 10453 10448 10444 10439 10435 10431 10427 10423 10418 10413 10409 10404 10398 10392 10387 10382 10376
10443 10446 10448 10446 10447 10451 10453 10453 10454 10461 10481 10502 10505 10496 10491 10490 10487 10476 10474 10494 10512 10508 10497 10490 10490 10494 10496 10494 10495 10494 10492 10495 10505 10510 10504 10497 10498 10498 10496 10497 10497 10495 10495 10494 10492 10491 10490 10488 10486 10484 10483 10482 10480 10478 10476 10473 10472 10471 10469 10466 10464 10461 10459 10455 10451 10449 10447 10444 10440 10436 10433 10428 10424 10421 10416 10412 10408 10403 10398 10394 10388 10382 10377 10371 10365 10359
10432 10433 10433 10431 10433 10438 10441 10442 10444 10453 10470 10483 10484 10482 10480 10477 10472 10465 10469 10490 10501 10491 10482 10480 10480 10482 10483 10483 10484 10483 10481 10484 10490 10493 10492 10490 10488 10485 10484 10485 10483 10483 10483 10482 10481 10480 10478 10476 10475 10473 10471 10470 10468 10467 10464 10462 10460 10458 10455 10453 10450 10447 10444 10440 10438 10436 10433 10429 10425 10420 10417 10413 10409 10405 10401 10396 10392 10387 10383 10378 10372 10366 10361 10355 10349 10343
10419 10421 10421 10420 10422 10425 10427 10429 10432 10441 10456 10464 10465 10466 10466 10463 10460 10459 10466 10477 10478 10474 10475 10475 10472 10472 10472 10470 10470 10470 10469 10470 10474 10478 10479 10478 10476 10474 10473 10471 10470 10470 10471 10470 10469 10467 10465 10464 10463 10461 10459 10458 10456 10454 10452 10449 10447 10444 10442 10439 10436 10433 10431 10428 10426 10423 10418 10414 10410 10405 10401 10398 10394 10389 10385 10380 10376 10371 10367 10361 10356 10351 10345 10338 10332 10326
10407 10409 10410 10412 10413 10414 10415 10415 10416 10426 10444 10451 10447 10447 10447 10446 10448 10454 10459 10460 10460 10463 10466 10464 10461 10462 10461 10459 10459 10459 10458 10458 10459 10461 10463 10463 10463 10462 10460 10458 10458 10458 10457 10457 10456 10454 10453 10452 10450 10449 10447 10445 10443 10441 10439 10436 10434 10432 10429 10426 10423 10421 10418 10416 10412 10408 10403 10399 10395 10391 10387 10383 10379 10374 10369 10365 10360 10355 10351 10345 10340 10334 10328 10322 10316 10310
10395 10395 10396 10401 10405 10405 10404 10402 10402 10415 10432 10435 10427 10426 10430 10433 10437 10443 10445 10445 10447 10450 10450 10449 10450 10450 10449 10449 10450 10448 10447 10448 10447 10447 10448 10448 10449 10448 10446 10445 10444 10443 10444 10443 10442 10440 10440 10438 10437 10436 10434 10432 10430 10428 10426 10424 10422 10419 10416 10414 10411 10408 10405 10401 10397 10394 10390 10386 10381 10377 10373 10369 10364 10360 10355 10350 10345 10340 10335 10329 10323 10318 10311 10305 10300 10294
10381 10383 10385 10391 10395 10394 10392 10393 10396 10405 10414 10414 10411 10413 10416 10420 10424 10427 10428 10430 10433 10434 10434 10436 10437 10437 10437 10438 10438 10437 10437 10436 10435 10436 10436 10435 10434 10434 10433 10432 10431 10430 10430 10429 10427 10427 10426 10424 10423 10422 10420 10418 10416 10414 10412 10410 10408 10405 10403 10400 10398 10395 10391 10387 10384 10380 10376 10372 10367 10363 10359 10354 10350 10345 10340 10335 10330 10324 10319 10312 10307 10301 10296 10289 10284 10279
10370 10374 10376 10380 10382 10380 10380 10385 10389 10393 10397 10401 10403 10403 10403 10404 10408 10411 10413 10415 10416 10418 10420 10421 10422 10424 10425 10425 10424 10425 10425 10423 10423 10423 10422 10421 10421 10421 10419 10419 10418 10417 10416 10415 10414 10413 10411 10410 10410 10408 10406 10405 10403 10401 10399 10397 10394 10392 10389 10386 10383 10380 10376 10372 10369 10365 10361 10357 10353 10349 10344 10340 10335 10329 10324 10319 10314 10308 10303 10297 10291 10286 10280 10275 10269 10263
10358 10362 10364 10366 10367 10368 10370 10376 10381 10384 10387 10389 10390 10391 10391 10392 10394 10396 10398 10399 10401 10403 10405 10406 10408 10410 10411 10411 10412 10412 10411 10411 10411 10410 10409 10409 10408 10407 10406 10405 10404 10404 10403 10402 10401 10400 10398 10397 10395 10393 10392 10391 10389 10387 10385 10382 10379 10377 10374 10371 10368 10364 10361 10357 10354 10350 10346 10342 10337 10333 10328 10323 10318 10313 10308 10303 10298 10293 10287 10282 10277 10271 10266 10260 10254 10247
10346 10349 10351 10353 10355 10357 10362 10368 10373 10373 10374 10376 10378 10379 10380 10380 10380 10382 10384 10385 10386 10388 10390 10392 10394 10395 10396 10397 10398 10397 10397 10397 10397 10396 10396 10395 10394 10393 10393 10392 10391 10390 10389 10388 10388 10386 10384 10383 10381 10379 10378 10376 10374 10372 10370 10367 10364 10360 10357 10355 10351 10348 10345 10341 10337 10333 10329 10324 10320 10316 10311 10307 10302 10297 10292 10287 10283 10278 10272 10267 10262 10256 10250 10245 10238 10232
10334 10335 10336 10340 10344 10348 10353 10359 10362 10361 10362 10363 10364 10365 10366 10366 10367 10369 10371 10372 10373 10375 10376 10378 10379 10380 10382 10382 10382 10383 10383 10382 10381 10381 10380 10379 10379 10379 10378 10377 10377 10376 10374 10373 10373 10371 10369 10368 10366 10364 10363 10360 10358 10356 10354 10351 10348 10344 10341 10338 10334 10331 10328 10324 10320 10316 10312 10307 10304 10299 10295 10291 10287 10282 10277 10272 10267 10262 10257 10251 10246 10240 10234 10228 10222 10216
10319 10321 10324 10329 10334 10338 10343 10347 10348 10347 10348 10350 10350 10351 10352 10353 10355 10357 10358 10359 10359 10360 10362 10364 10365 10367 10367 10367 10367 10367 10367 10366 10365 10364 10362 10361 10362 10361 10361 10361 10360 10359 10358 10356 10355 10353 10352 10351 10349 10347 10345 10343 10341 10339 10336 10334 10330 10327 10324 10321 10318 10315 10312 10307 10304 10300 10296 10292 10288 10283 10279 10275 10271 10266 10262 10256 10251 10245 10240 10235 10229 10223 10217 10211 10204 10198
10307 10310 10314 10317 10321 10326 10331 10332 10330 10331 10335 10337 10338 10339 10338 10340 10343 10344 10344 10345 10345 10346 10349 10350 10351 10352 10354 10353 10353 10352 10351 10350 10349 10348 10347 10346 10346 10345 10345 10344 10343 10342 10341 10339 10337 10336 10335 10333 10332 10331 10328 10327 10325 10323 10320 10318 10315 10312 10309 10306 10303 10300 10296 10292 10288 10284 10279 10275 10271 10267 10263 10259 10255 10250 10245 10239 10234 10228 10222 10217 10211 10205 10198 10192 10186 10180
10296 10299 10302 10305 10308 10312 10316 10317 10317 10321 10324 10324 10323 10324 10325 10327 10329 10329 10329 10330 10331 10333 10335 10336 10337 10338 10338 10338 10337 10336 10335 10334 10333 10333 10333 10332 10332 10332 10332 10330 10328 10327 10325 10323 10322 10321 10319 10318 10317 10315 10313 10312 10310 10308 10305 10303 10300 10297 10294 10291 10288 10284 10280 10276 10271 10266 10262 10259 10255 10251 10246 10241 10237 10232 10226 10221 10215 10209 10203 10197 10192 10186 10180 10174 10168 10162